Location: Sabalos
(43.2860°N, 0.1414°E)
Time: 04:37:37
(UTC+00:00)

Cosmos 2369 Rocket - Pass Details

Date: 05 July 2020
Orbit: 830 x 851 km, 71.0° (Epoch: 05 August)

Event Time Altitude Azimuth Distance (km) Brightness Sun altitude
Rises 23:37:58 0° 341° (NNW) 3,382 6.7 -23.8°
Reaches altitude 10° 23:40:39 10° 351° (N) 2,446 5.7 -23.8°
Maximum altitude 23:45:43 34° 56° (NE) 1,353 3.5 -23.9°
Enters shadow 23:48:38 21° 105° (ESE) 1,797 3.7 -24.0°
